Location: Miles
(41.4492°N, 81.6087°W)
Time: 23:37:58
(UTC+00:00)

Vanguard 1 Rocket - All Passes

Search period start: 11 September 2024 00:00
Search period end: 21 September 2024 00:00
Orbit: 649 x 4220 km, 34.3° (Epoch: 11 September)

Date Brightness Start Highest point End Pass type
(mag) Time Alt. Az. Time Alt. Az. Time Alt. Az.
11 Sep - 07:49:44 10° SSW 08:02:08 33° SE 08:21:08 10° E visible
11 Sep - 10:12:19 10° SW 10:30:04 63° SSE 10:55:43 10° E visible
11 Sep - 12:39:20 10° W 13:02:16 72° S 13:26:56 10° ESE daylight
11 Sep - 15:09:42 10° W 15:34:14 54° SSW 15:53:58 10° SE daylight
11 Sep - 17:45:12 10° W 18:01:49 23° SW 18:14:36 10° S daylight
12 Sep - 06:41:04 10° SSE 06:49:48 19° SE 07:01:51 10° E visible
12 Sep - 09:00:28 10° SW 09:15:23 52° SSE 09:39:06 10° E visible
12 Sep - 11:25:41 10° WSW 11:45:56 72° S 12:11:56 10° E daylight
12 Sep - 13:54:23 10° W 14:18:38 64° SSW 14:41:12 10° SE daylight
12 Sep - 16:26:46 10° W 16:48:25 36° SW 17:05:09 10° SSE daylight
13 Sep - 07:49:38 10° SSW 08:01:52 38° SE 08:21:41 10° E visible
13 Sep - 10:12:52 10° WSW 10:30:10 67° SSE 10:56:01 10° E visible
13 Sep - 12:39:58 10° W 13:02:24 70° S 13:27:17 10° ESE daylight
13 Sep - 15:10:15 10° W 15:33:58 49° SW 15:53:54 10° SSE daylight
13 Sep - 17:47:11 10° W 18:01:13 19° SW 18:12:47 10° SSW daylight
14 Sep - 06:40:12 10° S 06:49:26 24° SE 07:03:14 10° E visible
14 Sep - 09:00:53 10° SW 09:15:23 57° SSE 09:39:21 10° E visible
14 Sep - 11:26:22 10° WSW 11:46:08 72° S 12:12:16 10° ESE daylight
14 Sep - 13:54:58 10° W 14:18:33 60° SSW 14:41:19 10° SE daylight
14 Sep - 16:27:43 10° W 16:47:54 31° SW 17:04:23 10° S daylight
15 Sep - 05:35:22 10° SE 05:37:49 11° ESE 05:40:32 10° ESE visible
15 Sep - 07:49:48 10° SSW 08:01:45 43° SE 08:22:05 10° E visible
15 Sep - 10:13:32 10° WSW 10:30:22 69° S 10:56:17 10° E visible
15 Sep - 12:40:38 10° W 13:02:29 67° SSW 13:27:30 10° ESE daylight
15 Sep - 15:10:55 10° W 15:33:36 43° SW 15:53:34 10° SSE daylight
15 Sep - 17:50:31 10° W 18:00:35 14° WSW 18:09:30 10° SSW daylight
16 Sep - 06:39:50 10° S 06:49:12 28° SE 07:04:10 10° E visible
16 Sep - 09:01:27 10° SW 09:15:31 61° SSE 09:39:34 10° E visible
16 Sep - 11:27:05 10° W 11:46:21 71° S 12:12:31 10° ESE daylight
16 Sep - 13:55:36 10° W 14:18:23 55° SSW 14:41:14 10° SE daylight
16 Sep - 16:29:01 10° W 16:47:20 26° SW 17:03:05 10° S daylight
17 Sep - 05:32:08 10° SSE 05:37:32 14° ESE 05:44:31 10° E visible
17 Sep - 07:50:10 10° SW 08:01:46 48° SSE 08:22:21 10° E visible
17 Sep - 10:14:16 10° WSW 10:30:39 70° S 10:56:30 10° E visible
17 Sep - 12:41:19 10° W 13:02:33 64° SSW 13:27:34 10° SE daylight
17 Sep - 15:11:44 10° W 15:33:10 38° SW 15:52:54 10° SSE daylight
18 Sep - 06:39:48 10° SSW 06:49:06 33° SE 07:04:48 10° E visible
18 Sep - 09:02:08 10° WSW 09:15:46 64° SSE 09:39:44 10° E visible
18 Sep - 11:27:50 10° W 11:46:34 69° S 12:12:39 10° ESE daylight
18 Sep - 13:56:18 10° W 14:18:10 49° SSW 14:40:54 10° SE daylight
18 Sep - 16:30:58 10° W 16:46:44 21° SW 17:01:02 10° SSW daylight
19 Sep - 05:30:59 10° SSE 05:37:21 18° SE 05:46:24 10° E visible
19 Sep - 07:50:42 10° SW 08:01:55 53° SSE 08:22:34 10° E visible
19 Sep - 10:15:04 10° WSW 10:30:58 70° S 10:56:39 10° ESE visible
19 Sep - 12:42:02 10° W 13:02:33 59° SSW 13:27:26 10° SE daylight
19 Sep - 15:12:48 10° W 15:32:43 32° SW 15:51:48 10° S daylight
20 Sep - 06:40:02 10° SSW 06:49:09 38° SE 07:05:15 10° E visible
20 Sep - 09:02:54 10° WSW 09:16:07 67° SSE 09:39:52 10° E visible
20 Sep - 11:28:38 10° W 11:46:46 66° SSW 12:12:39 10° ESE daylight
20 Sep - 13:57:07 10° W 14:17:54 44° SW 14:40:15 10° SSE daylight
20 Sep - 16:34:03 10° W 16:46:11 16° SW 16:57:41 10° SSW daylight
